Mobile, AL

5:18 AM CST on February 24, 2018 (GMT -0600)
Mobile Regional

Weather History for KMOB - November, 2014

Change the Weather History Date:

Monday, November 10, 2014

  Actual Average Record
Temperature  
Mean Temperature 55 °F 61 °F  
Max Temperature 73 °F 72 °F 81 °F (1988)
Min Temperature 37 °F 50 °F 28 °F (1991)
Degree Days  
Heating Degree Days 10 6  
Month to date heating degree days 92 46  
Since 1 July heating degree days 132 101  
Cooling Degree Days 0 2  
Month to date cooling degree days 5 21  
Year to date cooling degree days 2301 2483  
Growing Degree Days 5 (Base 50)    
Moisture  
Dew Point 47 °F    
Average Humidity 69    
Maximum Humidity 100    
Minimum Humidity 38    
Precipitation  
Precipitation 0.00 in 0.18 in 3.14 in (1919)
Month to date precipitation T 1.71  
Year to date precipitation 65.96 57.67  
Snow  
Snow 0.00 in 0.00 in 0.00 in (2002)
Month to date snowfall 0.0 0.0  
Since 1 July snowfall 0.0 0.0  
Snow Depth 0.00 in    
Sea Level Pressure  
Sea Level Pressure 30.01 in    
Wind  
Wind Speed 4 mph (South)    
Max Wind Speed 13 mph    
Max Gust Speed 15 mph    
Visibility 9 miles    
Events      
T = Trace of Precipitation, MM = Missing Value Source: NWS Daily Summary

Daily Weather History Graph

Daily Weather History Graph

Search for Another Location

Airport or City:

Trip Planner

Search our weather history database for the weather conditions in past years. The results will help you decide how hot, cold, wet, or windy it might be!

Date:

Astronomy

Nov. 10, 2014 Rise Set
Actual Time 6:15 AM CST 4:58 PM CST
Civil Twilight 5:49 AM CST 5:23 PM CST
Nautical Twilight 5:20 AM CST 5:52 PM CST
Astronomical Twilight 4:52 AM CST 6:20 PM CST
Moon 8:27 PM CST (11/10) 9:34 AM CST (11/10)
Length of Visible Light 11h 33m
Length of Day
10h 43m
Waning Gibbous, 84% of the Moon is Illuminated
Nov 10
Waning Gibbous
Nov 14
Last Quarter
Nov 22
New
Nov 29
First Quarter
Dec 6
Full

Hourly Weather History & Observations

Time (CST) Temp. Dew Point Humidity Pressure Visibility Wind Dir Wind Speed Gust Speed Precip Events Conditions
12:56 AM 42.1 °F 41.0 °F 96% 30.01 in 10.0 mi Calm Calm - N/A   Clear
1:56 AM 41.0 °F 39.9 °F 96% 30.01 in 10.0 mi Calm Calm - N/A   Clear
2:56 AM 39.0 °F 39.0 °F 100% 30.01 in 10.0 mi Calm Calm - N/A   Clear
3:56 AM 41.0 °F 39.9 °F 96% 30.00 in 10.0 mi Calm Calm - N/A   Clear
4:56 AM 39.0 °F 39.0 °F 100% 30.01 in 10.0 mi Calm Calm - N/A   Clear
5:56 AM 37.9 °F 37.9 °F 100% 30.03 in 8.0 mi Calm Calm - N/A   Clear
6:56 AM 42.1 °F 41.0 °F 96% 30.04 in 7.0 mi Calm Calm - N/A   Clear
7:56 AM 55.0 °F 48.9 °F 80% 30.07 in 8.0 mi Calm Calm - N/A   Partly Cloudy
8:56 AM 62.1 °F 46.0 °F 56% 30.07 in 10.0 mi SSE 3.5 mph - N/A   Partly Cloudy
9:56 AM 64.4 °F 44.6 °F 49% 30.08 in 10.0 mi South 4.6 mph - N/A   Partly Cloudy
10:56 AM 68.0 °F 50.0 °F 52% 30.07 in 10.0 mi South 6.9 mph - N/A   Partly Cloudy
11:56 AM 70.0 °F 48.9 °F 47% 30.04 in 10.0 mi SSW 9.2 mph - N/A   Partly Cloudy
12:56 PM 71.1 °F 48.0 °F 44% 30.00 in 10.0 mi SSE 5.8 mph - N/A   Partly Cloudy
1:56 PM 73.0 °F 46.9 °F 39% 29.98 in 10.0 mi SSW 5.8 mph - N/A   Clear
2:56 PM 71.1 °F 52.0 °F 51% 29.98 in 10.0 mi SE 8.1 mph - N/A   Partly Cloudy
3:56 PM 68.0 °F 51.1 °F 55% 29.97 in 10.0 mi SSW 9.2 mph - N/A   Scattered Clouds
4:56 PM 62.1 °F 52.0 °F 70% 29.99 in 10.0 mi South 8.1 mph - N/A   Overcast
5:56 PM 57.0 °F 53.1 °F 87% 29.99 in 10.0 mi South 4.6 mph - N/A   Scattered Clouds
6:56 PM 55.0 °F 52.0 °F 89% 29.98 in 10.0 mi SSE 4.6 mph - N/A   Scattered Clouds
7:56 PM 55.0 °F 53.1 °F 93% 30.00 in 10.0 mi South 5.8 mph - N/A   Partly Cloudy
8:56 PM 55.0 °F 53.1 °F 93% 29.99 in 10.0 mi SSE 5.8 mph - N/A   Partly Cloudy
9:56 PM 53.1 °F 52.0 °F 96% 29.97 in 10.0 mi SSE 5.8 mph - N/A   Partly Cloudy
10:56 PM 50.0 °F 50.0 °F 100% 29.98 in 5.0 mi Calm Calm - N/A   Partly Cloudy
11:56 PM 51.1 °F 51.1 °F 100% 29.98 in 4.0 mi Calm Calm - N/A   Clear